Regional Weather Roundup
Issued by NWS

Home | Current Version | Previous Version | Text Only | Print | Product List | Glossary On
Versions: 1 2 3 4 5 6 7 8 9 10 11 12 13 14 15 16 17 18 19 20 21 22 23 24 25 26 27 28 29 30 31 32 33 34 35 36 37 38 39 40 41 42 43 44 45 46 47 48 49 50
000
ASUS43 KLMK 040310
RWRKY
KENTUCKY REGIONAL WEATHER ROUNDUP
NATIONAL WEATHER SERVICE LOUISVILLE KY
1100 PM EDT FRI JUL 03 2015

NOTE "FAIR" INDICATES FEW OR NO CLOUDS BELOW 12,000 FEET
WITH NO SIGNIFICANT WEATHER AND/OR OBSTRUCTIONS TO VISIBILITY.

KYZ001>023-026-027-061>063-070>075-040400-
WESTERN AND SOUTH CENTRAL KENTUCKY

CITY           SKY/WX    TMP DP  RH WIND       PRES   REMARKS
PADUCAH        CLEAR     71  68  90 CALM      29.88R
HENDERSON      PTCLDY    72  68  88 CALM      29.88R
OWENSBORO      TSTM      71  70  97 CALM      29.90S FOG
HOPKINSVILLE   CLOUDY    72  69  91 S3        29.90R
BOWLING GREEN  CLOUDY    71  68  90 NE3       29.92R
GLASGOW        LGT RAIN  69  69 100 CALM      29.92R
$$

KYZ024-025-028>034-038-045-046-053-040400-
NORTH CENTRAL KENTUCKY

CITY           SKY/WX    TMP DP  RH WIND       PRES   REMARKS
LOUISVILLE/SDF CLOUDY    73  68  84 CALM      29.90R
LOUISVILLE/LOU MOCLDY    71  69  93 CALM      29.90R FOG
FORT KNOX      LGT RAIN  69  68  96 VRB2      29.89S
$$

KYZ035>037-039>044-047>052-055>060-089>105-040400-
NORTHEAST KENTUCKY

CITY           SKY/WX    TMP DP  RH WIND       PRES   REMARKS
LEXINGTON      CLOUDY    68  67  96 SW3       29.90R
COVINGTON      CLOUDY    71  62  73 NE7       29.90R
FRANKFORT      CLOUDY    68  66  93 CALM      29.89R
$$

KYZ054-064>069-076>088-106>120-040400-
SOUTHEAST KENTUCKY

CITY           SKY/WX    TMP DP  RH WIND       PRES   REMARKS
JACKSON        LGT RAIN  67  65  93 CALM      29.92F
LONDON         LGT RAIN  69  65  86 SW9       29.94R
SOMERSET       CLOUDY    66  66 100 SW3       29.94R
MIDDLESBORO    CLOUDY    71  68  92 CALM      29.95R
MONTICELLO     CLOUDY    69  69 100 CALM      29.96R
$$




USA.gov is the U.S. government's official web portal to all federal, state and local government web resources and services.